When you browse on this site, cookies collect data to enhance your experience and personalize the content and advertising you see.
Visit our Privacy Policy to learn more. By continuing to use the site, you agree to this use of cookies and data.
  • En España
  • Lista de países
  • Para 7 días
  • Temperatura del agua
  • Mapa Satelital
  • El tiempo en el mapa
  • Informadores
  • user-avatar
    Iniciar sesión

    Tiempo cada hora Brčko

    Hoy, 21 Enero, Lunes

    Tiempo Temperatura Precipitaciones Viento Presión Humedad
    00:00 +1°C° 0 mm 0 mps 756 mmHg 87%
    01:00 +1°C° 0 mm 0 mps 756 mmHg 84%
    02:00 +1°C° 0 mm 0 mps 756 mmHg 84%
    03:00 +2°C° 0 mm 1 mps 756 mmHg 84%
    04:00 +2°C° 0 mm 1 mps 756 mmHg 83%
    05:00 +2°C° 0 mm 1 mps 756 mmHg 84%
    06:00 +1°C° 0 mm 1 mps 756 mmHg 84%
    07:00 +1°C° 0 mm 1 mps 756 mmHg 85%
    08:00 +2°C° 0 mm 1 mps 756 mmHg 82%
    09:00 +2°C° 0 mm 1 mps 757 mmHg 79%
    10:00 +2°C° 0 mm 2 mps 757 mmHg 76%
    11:00 +2°C° 0 mm 2 mps 757 mmHg 74%
    12:00 +3°C° 0 mm 2 mps 756 mmHg 73%
    13:00 +3°C° 0 mm 2 mps 756 mmHg 71%
    14:00 +3°C° 0.1 mm 2 mps 756 mmHg 73%
    15:00 +3°C° 0.1 mm 2 mps 756 mmHg 74%
    16:00 +3°C° 0.1 mm 2 mps 756 mmHg 75%
    17:00 +2°C° 0.2 mm 2 mps 756 mmHg 78%
    18:00 +2°C° 0.2 mm 2 mps 755 mmHg 80%
    19:00 +1°C° 0.2 mm 2 mps 755 mmHg 83%
    20:00 +1°C° 0.1 mm 2 mps 755 mmHg 84%
    21:00 +1°C° 0.1 mm 2 mps 755 mmHg 86%
    22:00 +1°C° 0.1 mm 2 mps 755 mmHg 88%
    23:00 -1°C° 0.1 mm 2 mps 755 mmHg 89%

    Mañana, 22 Enero, Martes

    Tiempo Temperatura Precipitaciones Viento Presión Humedad
    00:00 -1°C° 0.1 mm 2 mps 754 mmHg 90%
    01:00 -1°C° 0.1 mm 2 mps 754 mmHg 91%
    02:00 -1°C° 0.2 mm 2 mps 754 mmHg 92%
    03:00 -1°C° 0.2 mm 2 mps 753 mmHg 92%
    04:00 -1°C° 0.2 mm 2 mps 753 mmHg 92%
    05:00 -1°C° 0.1 mm 2 mps 753 mmHg 92%
    06:00 -1°C° 0.1 mm 2 mps 752 mmHg 93%
    07:00 -2°C° 0.1 mm 2 mps 752 mmHg 93%
    08:00 -1°C° 0.2 mm 2 mps 752 mmHg 92%
    09:00 +1°C° 0.2 mm 1 mps 751 mmHg 91%
    10:00 +1°C° 0.2 mm 1 mps 751 mmHg 90%
    11:00 +2°C° 0.3 mm 1 mps 750 mmHg 90%
    12:00 +1°C° 0.3 mm 2 mps 750 mmHg 90%
    13:00 +1°C° 0.3 mm 2 mps 749 mmHg 90%
    14:00 +2°C° 0.6 mm 1 mps 748 mmHg 91%
    15:00 +2°C° 0.6 mm 1 mps 748 mmHg 93%
    16:00 +2°C° 0.6 mm 1 mps 747 mmHg 94%
    17:00 +2°C° 0.3 mm 1 mps 747 mmHg 95%
    18:00 +2°C° 0.3 mm 1 mps 746 mmHg 96%
    19:00 +2°C° 0.3 mm 1 mps 745 mmHg 96%
    20:00 +2°C° 0.4 mm 1 mps 745 mmHg 97%
    21:00 +1°C° 0.4 mm 1 mps 744 mmHg 97%
    22:00 +1°C° 0.4 mm 1 mps 744 mmHg 97%
    23:00 +1°C° 0.8 mm 1 mps 743 mmHg 97%

    Pasado mañana, 23 Enero, Miércoles

    Tiempo Temperatura Precipitaciones Viento Presión Humedad
    00:00 0°C° 0.8 mm 0 mps 743 mmHg 97%
    01:00 0°C° 0.8 mm 0 mps 742 mmHg 97%
    02:00 0°C° 0.2 mm 0 mps 742 mmHg 97%
    03:00 0°C° 0.2 mm 0 mps 742 mmHg 96%
    04:00 -1°C° 0.2 mm 0 mps 741 mmHg 96%
    05:00 -1°C° 0 mm 0 mps 741 mmHg 96%
    06:00 -1°C° 0 mm 1 mps 741 mmHg 95%
    07:00 -1°C° 0 mm 1 mps 741 mmHg 95%
    08:00 0°C° 0 mm 1 mps 741 mmHg 95%
    09:00 +1°C° 0 mm 1 mps 741 mmHg 95%
    10:00 +2°C° 0 mm 1 mps 741 mmHg 95%
    11:00 +3°C° 0 mm 1 mps 740 mmHg 95%
    12:00 +4°C° 0 mm 1 mps 740 mmHg 96%
    13:00 +5°C° 0 mm 1 mps 740 mmHg 97%
    14:00 +3°C° 0 mm 2 mps 740 mmHg 96%
    15:00 +3°C° 0 mm 2 mps 740 mmHg 96%
    16:00 +3°C° 0 mm 2 mps 740 mmHg 95%
    17:00 +2°C° 0 mm 2 mps 741 mmHg 96%
    18:00 +2°C° 0 mm 2 mps 741 mmHg 96%
    19:00 +1°C° 0 mm 2 mps 742 mmHg 97%
    20:00 +2°C° 0 mm 1 mps 742 mmHg 96%
    21:00 +1°C° 0 mm 1 mps 743 mmHg 95%
    22:00 +1°C° 0 mm 1 mps 743 mmHg 95%
    23:00 +1°C° 0 mm 1 mps 743 mmHg 95%

    24 Enero, Jueves

    Tiempo Temperatura Precipitaciones Viento Presión Humedad
    00:00 0°C° 0 mm 1 mps 744 mmHg 95%
    01:00 0°C° 0 mm 1 mps 744 mmHg 95%
    02:00 0°C° 0 mm 1 mps 744 mmHg 95%
    03:00 0°C° 0 mm 1 mps 744 mmHg 96%
    04:00 0°C° 0 mm 1 mps 744 mmHg 96%
    05:00 0°C° 0 mm 1 mps 744 mmHg 96%
    06:00 +1°C° 0 mm 1 mps 744 mmHg 96%
    07:00 +1°C° 0 mm 1 mps 745 mmHg 95%
    08:00 +1°C° 0 mm 1 mps 745 mmHg 96%
    09:00 +2°C° 0 mm 1 mps 745 mmHg 96%
    10:00 +1°C° 0 mm 2 mps 745 mmHg 96%
    11:00 +1°C° 0.1 mm 2 mps 745 mmHg 95%
    12:00 +1°C° 0.1 mm 3 mps 745 mmHg 95%
    13:00 +1°C° 0.1 mm 3 mps 745 mmHg 95%
    14:00 +1°C° 0.6 mm 3 mps 745 mmHg 95%
    15:00 +1°C° 0.6 mm 3 mps 745 mmHg 95%
    16:00 +1°C° 0.6 mm 3 mps 745 mmHg 96%
    17:00 0°C° 0.4 mm 3 mps 745 mmHg 96%
    18:00 0°C° 0.4 mm 3 mps 745 mmHg 95%
    19:00 0°C° 0.4 mm 3 mps 746 mmHg 95%
    20:00 0°C° 0.1 mm 3 mps 746 mmHg 95%
    21:00 0°C° 0.1 mm 3 mps 746 mmHg 94%
    22:00 0°C° 0.1 mm 3 mps 747 mmHg 94%
    23:00 0°C° 0.3 mm 3 mps 747 mmHg 94%

    25 Enero, Viernes

    Tiempo Temperatura Precipitaciones Viento Presión Humedad
    00:00 -1°C° 0.3 mm 3 mps 747 mmHg 93%
    01:00 -1°C° 0.3 mm 3 mps 747 mmHg 93%
    02:00 -1°C° 0.6 mm 3 mps 747 mmHg 94%
    03:00 -1°C° 0.6 mm 3 mps 747 mmHg 95%
    04:00 -2°C° 0.6 mm 3 mps 747 mmHg 96%
    05:00 -2°C° 0.7 mm 3 mps 748 mmHg 96%
    06:00 -2°C° 0.7 mm 3 mps 748 mmHg 96%
    07:00 -2°C° 0.7 mm 3 mps 748 mmHg 96%
    08:00 -2°C° 0.5 mm 3 mps 749 mmHg 95%
    09:00 -2°C° 0.5 mm 3 mps 749 mmHg 95%
    10:00 -2°C° 0.5 mm 3 mps 750 mmHg 94%
    11:00 -2°C° 0.6 mm 3 mps 750 mmHg 95%
    12:00 -2°C° 0.6 mm 3 mps 750 mmHg 95%
    13:00 -3°C° 0.6 mm 4 mps 750 mmHg 95%
    14:00 -1°C° 0.5 mm 3 mps 750 mmHg 94%
    15:00 -1°C° 0.5 mm 3 mps 750 mmHg 94%
    16:00 -1°C° 0.5 mm 3 mps 750 mmHg 94%
    17:00 -2°C° 0.4 mm 3 mps 750 mmHg 94%
    18:00 -2°C° 0.4 mm 3 mps 750 mmHg 94%
    19:00 -2°C° 0.4 mm 3 mps 751 mmHg 94%
    20:00 -2°C° 0.3 mm 3 mps 751 mmHg 93%
    21:00 -2°C° 0.3 mm 3 mps 751 mmHg 92%
    22:00 -4°C° 0.3 mm 3 mps 751 mmHg 91%
    23:00 -4°C° 0.1 mm 3 mps 751 mmHg 90%

    26 Enero, Sábado

    Tiempo Temperatura Precipitaciones Viento Presión Humedad
    00:00 -4°C° 0.1 mm 4 mps 751 mmHg 89%
    01:00 -4°C° 0.1 mm 4 mps 751 mmHg 88%
    02:00 -4°C° 0.1 mm 4 mps 751 mmHg 88%
    03:00 -4°C° 0.1 mm 4 mps 751 mmHg 88%
    04:00 -4°C° 0.1 mm 4 mps 751 mmHg 88%
    05:00 -5°C° 0 mm 4 mps 751 mmHg 88%
    06:00 -5°C° 0 mm 4 mps 751 mmHg 87%
    07:00 -7°C° 0 mm 4 mps 752 mmHg 87%
    08:00 -5°C° 0 mm 4 mps 752 mmHg 86%
    09:00 -5°C° 0 mm 3 mps 752 mmHg 84%
    10:00 -4°C° 0 mm 3 mps 752 mmHg 83%
    11:00 -2°C° 0 mm 3 mps 752 mmHg 82%
    12:00 -2°C° 0 mm 3 mps 751 mmHg 81%
    13:00 -1°C° 0 mm 3 mps 751 mmHg 81%
    14:00 -2°C° 0 mm 2 mps 751 mmHg 82%
    15:00 -2°C° 0 mm 2 mps 751 mmHg 84%
    16:00 -1°C° 0 mm 1 mps 750 mmHg 85%
    17:00 -1°C° 0 mm 1 mps 750 mmHg 84%
    18:00 -2°C° 0 mm 1 mps 750 mmHg 82%
    19:00 -3°C° 0 mm 1 mps 751 mmHg 81%
    20:00 -3°C° 0 mm 1 mps 750 mmHg 81%
    21:00 -3°C° 0 mm 1 mps 750 mmHg 80%
    22:00 -3°C° 0 mm 1 mps 750 mmHg 80%
    23:00 -5°C° 0 mm 2 mps 750 mmHg 80%
    Mostrar más